Location: Bucquoy
(50.1391°N, 2.7097°E)
Time: 13:12:14
(UTC+00:00)

Cosmos 2100 Rocket - Pass Details

Date: 06 May 2021
Orbit: 957 x 1000 km, 82.9° (Epoch: 22 June)

Event Time Altitude Azimuth Distance (km) Brightness Sun altitude
Rises 02:06:59 0° 349° (N) 3,679 7.7 -16.4°
Reaches altitude 10° 02:09:30 10° 349° (NNW) 2,733 6.9 -16.2°
Maximum altitude 02:15:46 81° 264° (W) 1,000 4.0 -15.6°
Enters shadow 02:21:50 11° 177° (S) 2,658 5.8 -15.0°
